This demonstration page uses our WeatherBlox Daily Observations layout. Learn more.

Left ArrowRight Arrow

40.97296, -117.73568

Hourly Observations for December 10, 2022

Temp ( °F °C ) Dew Point ( °F °C ) Humidity (%) Winds ( mph kmh ) Pressure ( in mb ) Visibility ( mi km ) Precip ( " mm )
12:56 am 00:56 Cloudy 36 2.2 25 -3.9 64 64 VRB 6 9 29.87 1011 10 16 0.00 0.00
1:56 am 01:56 Cloudy 36 2.2 25 -3.9 64 64 VRB 3 6 29.86 1011 10 16 0.00 0.00
2:56 am 02:56 Cloudy 34 1.1 26 -3.3 72 72 ENE 10 17 29.83 1010 10 16 0.00 0.00
3:56 am 03:56 Cloudy 34 1.1 26 -3.3 72 72 SE 3 6 29.81 1009 10 16 0.00 0.00
4:56 am 04:56 Clear 37 2.8 24 -4.4 59 59 S 13 20 29.77 1008 10 16 0.00 0.00
5:56 am 05:56 Mostly Cloudy 38 3.3 23 -5 54 54 S 13 20 29.75 1008 10 16 0.00 0.00
6:56 am 06:56 Mostly Clear 37 2.8 23 -5 56 56 SSW 16 26 29.75 1008 10 16 0.00 0.00
7:56 am 07:56 Cloudy 39 3.9 22 -5.6 50 50 SSW 14 22 29.77 1008 10 16 0.00 0.00
8:56 am 08:56 Mostly Cloudy 40 4.4 22 -5.6 48 48 SSW 12 19 29.75 1007 10 16 0.00 0.00
9:56 am 09:56 Cloudy 45 7.2 22 -5.6 40 40 S 5 7 29.72 1007 10 16 0.00 0.00
10:56 am 10:56 Cloudy 50 10 23 -5 34 34 S 16 26 29.67 1005 10 16 0.00 0.00
11:56 am 11:56 Mostly Cloudy 50 10 24 -4.4 36 36 SSE 21 33 29.60 1002 10 16 0.00 0.00
12:56 pm 12:56 Mostly Cloudy 50 10 24 -4.4 36 36 SSE 21 33 29.58 1002 10 16 0.00 0.00
1:56 pm 13:56 Cloudy 52 11.1 25 -3.9 35 35 S 18 30 29.56 1001 10 16 0.00 0.00
2:56 pm 14:56 Cloudy 50 10 25 -3.9 37 37 S 18 30 29.56 1001 10 16 0.00 0.00
3:56 pm 15:56 Cloudy 48 8.9 27 -2.8 44 44 SSW 14 22 29.55 1001 10 16 0.00 0.00
4:56 pm 16:56 Mostly Cloudy with Light Rain 47 8.3 34 1.1 60 60 S 13 20 29.54 1000 7 11 0.01 0.13
5:56 pm 17:56 Cloudy with Light Rain 44 6.7 37 2.8 76 76 WSW 10 17 29.58 1002 6 10 0.01 0.13
6:56 pm 18:56 Cloudy with Light Rain 41 5 38 3.3 89 89 W 14 22 29.60 1002 10 16 0.01 0.25
7:56 pm 19:56 Cloudy with Light Rain 39 3.9 36 2.2 89 89 VRB 6 9 29.59 1002 10 16 0.01 0.25
8:56 pm 20:56 Cloudy with Rain 39 3.9 36 2.2 89 89 VRB 6 9 29.58 1002 6 10 0.03 0.76
9:56 pm 21:56 Cloudy with Rain 37 2.8 34 1.1 89 89 WSW 7 11 29.59 1002 4 6 0.13 3.30
10:11 pm 22:11 Cloudy with Rain 37 2.8 34 1.1 89 89 Calm 29.67 1005 6 10 0.03 0.76
10:49 pm 22:49 Cloudy with Light Rain 38 3.3 35 1.7 89 89 SE 20 31 29.64 1004 10 16 0.06 1.52
10:56 pm 22:56 Cloudy with Light Rain 38 3.3 35 1.7 89 89 SSE 21 33 29.55 1001 9 14 0.06 1.52
11:56 pm 23:56 Cloudy 37 2.8 34 1.1 89 89 S 10 17 29.55 1001 10 16 0.03 0.76

Powered by AerisWeather